[[{"header":{"parameterUnit":"m.s-1","parameterCategory":1,"la1":30.2991,"la2":30.254,"lo1":-89.0895,"lo2":-89.0444,"dy":0.0017,"dx":0.0017,"nx":28,"ny":28,"refTime":"2024-03-22T03:00:00:Z","depth":0,"parameterNumber":2,"parameterNumberName":"U-component_of_WINDS"},"data":[0,0,0,0,0,0,0,0,0,0,0,0,0,0,0,0,0,0,0,0,0,0,0,0,0,0,0,0,0,0,0,0,0,0,0,0,0,0,0,0,0,0,0,0,0,0,0,0,0,0,0,0,0,0,0,0,0,0,0.5949,0.5949,0,0.5975,0.5976,0.5976,0.5988,0.5988,0.5988,0.5988,0.6014,0.6015,0.6016,0,0,0,0,0,0,0,0,0,0,0,0,0,0.591,0.591,0.5949,0.5949,0.595,0.5975,0.5976,0.5976,0.5988,0.5988,0.5988,0.5988,0.6014,0.6015,0.6016,0,0,0,0,0,0,0,0,0,0,0,0,0,0.593,0.5911,0.5949,0.5959,0.596,0.5975,0.5976,0.5976,0.5988,0.5988,0.5988,0.5988,0.6014,0.6015,0.6016,0.6023,0,0,0.6019,0.602,0,0,0,0,0,0,0,0,0.5929,0.5932,0.5957,0.5958,0.5959,0.5978,0.5972,0.5992,0.5988,0.5977,0.5988,0.5988,0.6002,0.6004,0.6009,0.6024,0.6026,0.6019,0.602,0.602,0.6021,0,0,0,0,0,0,0,0.5928,0.5931,0.5959,0.5957,0.5959,0.5962,0.5965,0.5975,0.599,0.5978,0.5979,0.5982,0.6003,0.6008,0.601,0.6026,0.6019,0.602,0.6021,0.6021,0.6051,0.6051,0,0,0,0,0,0,0.5925,0.593,0.5958,0.596,0.5944,0.5963,0.5966,0.5972,0.599,0.5992,0.5982,0.5983,0.6006,0.6009,0.6011,0.6022,0.602,0.6021,0.6022,0.6051,0.6051,0.6051,0,0,0,0,0,0,0.5924,0.5927,0.5957,0.5945,0.5949,0.5963,0.597,0.5973,0.5978,0.5993,0.5995,0.5985,0.6006,0.6009,0.6021,0.6023,0.6022,0.6023,0.6051,0.6051,0.6051,0.6043,0,0,0,0,0,0,0.5923,0.5927,0.5929,0.5945,0.595,0.5966,0.597,0.5973,0.598,0.5981,0.5996,0.5998,0.6007,0.6019,0.6022,0.6024,0.6024,0.605,0.6051,0.6051,0.6043,0.6043,0.6043,0,0,0,0,0,0.5921,0.5925,0.5929,0.5933,0.5953,0.5966,0.5969,0.5979,0.598,0.5983,0.5993,0.5998,0.6023,0.602,0.6023,0.6026,0.605,0.6051,0.6051,0.6043,0.6043,0.6043,0,0,0,0,0,0,0.5909,0.5928,0.5932,0.5942,0.5952,0.5968,0.5972,0.5978,0.5988,0.5989,0.6,0.6004,0.6014,0.6021,0.6018,0.6036,0.6037,0.6038,0.603,0.603,0.603,0.6028,0.6025,0,0,0,0,0,0.5907,0.5916,0.5932,0.5939,0.5944,0.5957,0.5963,0.597,0.5982,0.5986,0.5997,0.6008,0.6018,0.6025,0.6035,0.6045,0.6049,0.6049,0.6049,0.6048,0.6049,0.6056,0.6057,0.6052,0.6052,0.6052,0,0,0.5904,0.5915,0.592,0.5937,0.5946,0.5955,0.5961,0.597,0.5978,0.5988,0.5999,0.6007,0.6021,0.6032,0.6037,0.6038,0.6051,0.6049,0.6049,0.6049,0.6057,0.6057,0.6057,0.6052,0.6052,0.6052,0,0,0.5902,0.5912,0.5919,0.5929,0.5943,0.5952,0.5954,0.597,0.5976,0.5988,0.5996,0.6005,0.6022,0.6032,0.6039,0.6044,0.605,0.6048,0.6046,0.6053,0.6054,0.6054,0.6057,0.6057,0.6048,0.6048,0.6048,0,0.5896,0.591,0.5922,0.5931,0.5939,0.595,0.5958,0.5967,0.5983,0.5989,0.599,0.6014,0.6023,0.6037,0.6039,0.6044,0.6047,0.6045,0.6053,0.6053,0.6054,0.6056,0.6057,0.6048,0.6048,0.6048,0.6048,0,0.5902,0.5913,0.5917,0.5934,0.5942,0.5951,0.5964,0.5972,0.5979,0.5988,0.6001,0.6013,0.6027,0.6031,0.6037,0.6047,0.6047,0.6051,0.6052,0.6054,0.6056,0.6057,0.6047,0.6047,0.6048,0.6048,0,0,0.5892,0.5917,0.5918,0.5927,0.5945,0.5953,0.5963,0.5977,0.5983,0.5995,0.6004,0.602,0.6024,0.6032,0.604,0.6047,0.6051,0.6049,0.605,0.605,0.6064,0.6061,0.6062,0.6055,0.6056,0.6056,0.6063,0,0.5893,0.5911,0.5923,0.5937,0.5947,0.5959,0.5968,0.598,0.5989,0.6,0.6011,0.6022,0.6026,0.6031,0.6038,0.6049,0.6054,0.6049,0.6064,0.6065,0.606,0.6063,0.606,0.6065,0.6064,0.6064,0.6064,0,0.5896,0.5909,0.5924,0.5942,0.5947,0.5955,0.597,0.5979,0.5994,0.6001,0.6011,0.602,0.6032,0.6034,0.6051,0.6047,0.6054,0.6061,0.6062,0.6063,0.6064,0.6064,0.6067,0.6068,0.6066,0.6066,0.6065,0,0.5887,0.5908,0.592,0.5927,0.5949,0.5954,0.5964,0.5979,0.5987,0.6001,0.6006,0.6021,0.6029,0.604,0.6053,0.6053,0.6069,0.6071,0.6075,0.6075,0.6077,0.6077,0.6081,0.6083,0.6083,0.6083,0.6083,0,0.5887,0.5896,0.5917,0.5924,0.5935,0.5949,0.596,0.597,0.5984,0.5994,0.6005,0.6014,0.6031,0.6042,0.6053,0.6066,0.6069,0.6076,0.6078,0.6074,0.6074,0.6079,0.6079,0.6083,0.6083,0.6083,0.6083,0,0.5878,0.5893,0.5907,0.5927,0.5933,0.594,0.5957,0.5965,0.5977,0.599,0.5993,0.6011,0.6026,0.604,0.6059,0.6066,0.6079,0.6083,0.6074,0.6076,0.6079,0.6079,0.6087,0.6089,0.6088,0.6088,0.6088,0,0.5877,0.5884,0.5906,0.5914,0.5923,0.5936,0.5945,0.596,0.5969,0.5988,0.5994,0.601,0.6023,0.6046,0.6061,0.6076,0.608,0.6082,0.6082,0.6079,0.608,0.608,0.6081,0.6081,0.6081,0.6081,0.6081,0,0.5873,0.588,0.5893,0.5909,0.592,0.5934,0.5947,0.5953,0.5971,0.5981,0.5997,0.6007,0.6028,0.6044,0.6061,0.6071,0.6079,0.6081,0.6083,0.6079,0.6074,0.6077,0.6073,0.608,0.608,0.608,0.6081,0.6081,0.5868,0.5876,0.5893,0.5907,0.592,0.5933,0.5942,0.5955,0.5968,0.5987,0.5995,0.6011,0.6028,0.6052,0.6063,0.6076,0.6078,0.608,0.6081,0.6081,0.6081,0.6072,0.6079,0.6079,0.6079,0.6079,0.6079,0,0.5865,0.5877,0.5891,0.591,0.5922,0.593,0.5946,0.5955,0.5969,0.5985,0.5998,0.6017,0.6033,0.605,0.6067,0.6074,0.6078,0.6078,0.6077,0.608,0.6078,0.6075,0.6074,0.6074,0.6074,0.6074,0.6074,0.6074,0.5865,0.5879,0.5888,0.5909,0.5921,0.5937,0.5946,0.5959,0.5971,0.5992,0.6005,0.6017,0.6033,0.6052,0.6067,0.6072,0.6078,0.6076,0.6082,0.6079,0.608,0.608,0.6077,0.6078,0.6078,0.6083,0.6083,0.6083]},{"header":{"parameterUnit":"m.s-1","parameterCategory":1,"la1":30.2991,"la2":30.254,"lo1":-89.0895,"lo2":-89.0444,"dy":0.0017,"dx":0.0017,"nx":28,"ny":28,"refTime":"2024-03-22T03:00:00:Z","depth":0,"parameterNumber":3,"parameterNumberName":"V-component_of_WINDS"},"data":[0,0,0,0,0,0,0,0,0,0,0,0,0,0,0,0,0,0,0,0,0,0,0,0,0,0,0,0,0,0,0,0,0,0,0,0,0,0,0,0,0,0,0,0,0,0,0,0,0,0,0,0,0,0,0,0,0,0,-4.6141,-4.6141,0,-4.6166,-4.6166,-4.6166,-4.6136,-4.6135,-4.6134,-4.6132,-4.6155,-4.6157,-4.6159,0,0,0,0,0,0,0,0,0,0,0,0,0,-4.6065,-4.6066,-4.6141,-4.6141,-4.6141,-4.6166,-4.6166,-4.6166,-4.6136,-4.6135,-4.6133,-4.6132,-4.6155,-4.6157,-4.6159,0,0,0,0,0,0,0,0,0,0,0,0,0,-4.6095,-4.6067,-4.6141,-4.6129,-4.6128,-4.6165,-4.6166,-4.6166,-4.6136,-4.6135,-4.6133,-4.6131,-4.6154,-4.6156,-4.6159,-4.6208,0,0,-4.6166,-4.6168,0,0,0,0,0,0,0,0,-4.6093,-4.6097,-4.6131,-4.613,-4.6129,-4.6146,-4.6147,-4.618,-4.6137,-4.6133,-4.6132,-4.6131,-4.6153,-4.6156,-4.6164,-4.6209,-4.621,-4.6167,-4.6168,-4.6169,-4.617,0,0,0,0,0,0,0,-4.6091,-4.6096,-4.615,-4.6131,-4.613,-4.6122,-4.6125,-4.6154,-4.6152,-4.6133,-4.6131,-4.6135,-4.6153,-4.6162,-4.6164,-4.621,-4.6167,-4.6169,-4.617,-4.6171,-4.6297,-4.6298,0,0,0,0,0,0,-4.609,-4.6095,-4.615,-4.6151,-4.6107,-4.6125,-4.6128,-4.6142,-4.6152,-4.6152,-4.6136,-4.6133,-4.6158,-4.6161,-4.6165,-4.6223,-4.6169,-4.6172,-4.6173,-4.6295,-4.6297,-4.6299,0,0,0,0,0,0,-4.6089,-4.6096,-4.6149,-4.6122,-4.6128,-4.6128,-4.6145,-4.6144,-4.6153,-4.6154,-4.6153,-4.6146,-4.6157,-4.6162,-4.6198,-4.6223,-4.6173,-4.6175,-4.6292,-4.6295,-4.6298,-4.6339,0,0,0,0,0,0,-4.6087,-4.6095,-4.6114,-4.6123,-4.613,-4.6181,-4.6146,-4.6145,-4.6157,-4.6154,-4.6163,-4.6163,-4.6156,-4.6194,-4.62,-4.6226,-4.6177,-4.629,-4.6294,-4.6297,-4.6336,-4.6343,-4.6349,0,0,0,0,0,-4.6084,-4.6124,-4.6115,-4.6122,-4.6154,-4.6183,-4.6187,-4.6179,-4.6159,-4.6178,-4.6179,-4.6162,-4.622,-4.6198,-4.6204,-4.6231,-4.6288,-4.6293,-4.6297,-4.6332,-4.6342,-4.6349,0,0,0,0,0,0,-4.6117,-4.6125,-4.6115,-4.6159,-4.6171,-4.6178,-4.6201,-4.6189,-4.6206,-4.6202,-4.6191,-4.6193,-4.6232,-4.6235,-4.6211,-4.6279,-4.6251,-4.6256,-4.6276,-4.6284,-4.6291,-4.6289,-4.6179,0,0,0,0,0,-4.6129,-4.6153,-4.6159,-4.6197,-4.6203,-4.6201,-4.6214,-4.6207,-4.6218,-4.6223,-4.6226,-4.6237,-4.6258,-4.6271,-4.629,-4.6336,-4.6338,-4.6358,-4.6365,-4.6371,-4.6375,-4.6401,-4.641,-4.6313,-4.6313,-4.6312,0,0,-4.6155,-4.6162,-4.6178,-4.6204,-4.6212,-4.6236,-4.6206,-4.6232,-4.625,-4.6226,-4.6261,-4.6264,-4.6276,-4.6317,-4.6336,-4.6321,-4.6403,-4.6376,-4.638,-4.6382,-4.6406,-4.6415,-4.6423,-4.6315,-4.6315,-4.6314,0,0,-4.6214,-4.6222,-4.6255,-4.6264,-4.6278,-4.6276,-4.6285,-4.6294,-4.6295,-4.633,-4.6313,-4.6334,-4.6369,-4.6378,-4.6388,-4.6452,-4.6437,-4.6458,-4.6495,-4.6519,-4.6527,-4.6534,-4.6557,-4.6565,-4.6463,-4.6463,-4.6463,0,-4.6243,-4.628,-4.6273,-4.6302,-4.6314,-4.6295,-4.6328,-4.6337,-4.6356,-4.6364,-4.6348,-4.6393,-4.6399,-4.6443,-4.6459,-4.6467,-4.6475,-4.6457,-4.6527,-4.6533,-4.6539,-4.6561,-4.657,-4.6466,-4.6466,-4.6465,-4.6465,0,-4.6316,-4.6342,-4.6367,-4.6387,-4.6402,-4.6433,-4.643,-4.6446,-4.6438,-4.6438,-4.6474,-4.6482,-4.6502,-4.6512,-4.6504,-4.6555,-4.6546,-4.6528,-4.6499,-4.6551,-4.6571,-4.658,-4.6469,-4.6469,-4.6468,-4.6467,0,0,-4.6395,-4.6412,-4.6421,-4.643,-4.6445,-4.6464,-4.6494,-4.6515,-4.6529,-4.6543,-4.6568,-4.6599,-4.6584,-4.6594,-4.6587,-4.6609,-4.666,-4.6589,-4.6589,-4.6602,-4.6716,-4.6729,-4.6739,-4.6651,-4.6652,-4.6653,-4.6715,0,-4.6454,-4.6507,-4.6503,-4.6553,-4.6577,-4.656,-4.6586,-4.6597,-4.6599,-4.6619,-4.662,-4.6643,-4.662,-4.6627,-4.6648,-4.6649,-4.6683,-4.6645,-4.6673,-4.6674,-4.667,-4.6749,-4.6763,-4.6821,-4.6723,-4.6725,-4.6726,0,-4.653,-4.6548,-4.6601,-4.6613,-4.6623,-4.6647,-4.6666,-4.6686,-4.6698,-4.6698,-4.6711,-4.6701,-4.6731,-4.6702,-4.6743,-4.6717,-4.6728,-4.6731,-4.6733,-4.6735,-4.6703,-4.6753,-4.6839,-4.6848,-4.6738,-4.6737,-4.6736,0,-4.6582,-4.662,-4.6657,-4.6665,-4.668,-4.6697,-4.6703,-4.6714,-4.6728,-4.6745,-4.6753,-4.6773,-4.6784,-4.6799,-4.6795,-4.6774,-4.6837,-4.6807,-4.6837,-4.6837,-4.685,-4.6849,-4.6939,-4.6858,-4.6858,-4.6858,-4.6858,0,-4.6649,-4.6682,-4.6681,-4.6703,-4.674,-4.6734,-4.677,-4.6774,-4.6785,-4.6808,-4.6794,-4.6815,-4.6808,-4.6829,-4.6826,-4.6861,-4.6865,-4.6866,-4.6864,-4.6867,-4.6867,-4.6873,-4.6869,-4.686,-4.686,-4.6859,-4.6859,0,-4.6713,-4.6713,-4.6752,-4.6764,-4.6767,-4.6794,-4.6803,-4.6824,-4.6825,-4.6854,-4.6861,-4.6862,-4.6886,-4.6884,-4.691,-4.6908,-4.6951,-4.6945,-4.6947,-4.6946,-4.6975,-4.6973,-4.7072,-4.7085,-4.6996,-4.6997,-4.6998,0,-4.6755,-4.678,-4.6795,-4.681,-4.6818,-4.6842,-4.6856,-4.6852,-4.6867,-4.6884,-4.6903,-4.6926,-4.6945,-4.6984,-4.6987,-4.7008,-4.7002,-4.7035,-4.7004,-4.7006,-4.7002,-4.7,-4.7003,-4.7041,-4.7042,-4.7043,-4.7043,0,-4.6829,-4.6829,-4.685,-4.6873,-4.689,-4.6907,-4.6922,-4.6935,-4.6932,-4.695,-4.6975,-4.6989,-4.7018,-4.7041,-4.7061,-4.7067,-4.7055,-4.7053,-4.7061,-4.7064,-4.7064,-4.7064,-4.6963,-4.7051,-4.705,-4.7049,-4.7049,-4.7049,-4.6884,-4.6906,-4.692,-4.6945,-4.6956,-4.6971,-4.6992,-4.6996,-4.7018,-4.7041,-4.7037,-4.7066,-4.7078,-4.7104,-4.7112,-4.7134,-4.7122,-4.7133,-4.7136,-4.7139,-4.7142,-4.7061,-4.7137,-4.7137,-4.7137,-4.7137,-4.7137,0,-4.6957,-4.6966,-4.6989,-4.7012,-4.7031,-4.702,-4.7037,-4.7053,-4.7079,-4.7092,-4.7111,-4.7141,-4.7164,-4.7169,-4.7191,-4.7208,-4.7203,-4.7214,-4.7212,-4.7214,-4.7152,-4.7143,-4.7217,-4.7217,-4.7217,-4.7217,-4.7217,-4.7217,-4.6998,-4.7035,-4.7037,-4.7079,-4.7087,-4.7116,-4.7127,-4.7141,-4.7152,-4.7186,-4.7205,-4.7209,-4.7219,-4.7242,-4.7263,-4.7263,-4.7272,-4.7285,-4.7284,-4.7226,-4.7218,-4.721,-4.7202,-4.7287,-4.7287,-4.7344,-4.7344,-4.7345]}]]